Home   Weather   Malatya   Past weeks
Flag for Turkey

Past Weather in Malatya, Turkey — Yesterday and Last 2 Weeks

Now
39 °F

Passing clouds.


Feels Like: 36 °F
Forecast: 57 / 32 °F
Wind: 5 mph from South

Location: Malatya / Erhac

Current Time: Mar 22, 2019 at 11:40:47 pm

Latest Report: Mar 22, 2019 at 10:50 pm


Visibility: N/A

Pressure: 30.09 "Hg (26.73 "Hg at 960m altitude)

Humidity: 56%

Dew Point: 25 °F

Location of MalatyaLocation

Past Weather in Malatya — Graph

°F

Malatya Temperature Yesterday

Maximum temperature yesterday: 64 °F (at 2:50 pm)
Minimum temperature yesterday: 30 °F (at 6:20 am)
Average temperature yesterday: 49 °F

High & Low Weather Summary for the Past Weeks

 TemperatureHumidityPressure
High64 °F (Mar 11, 3:50 pm)100% (Mar 16, 4:50 am)30.36 "Hg (Mar 16, 4:50 am)
Low23 °F (Mar 9, 6:50 am)20% (Mar 22, 3:50 pm)29.80 "Hg (Mar 14, 2:50 am)
Average47 °F59%30.04 "Hg
* Reported Mar 7 10:20 pm — Mar 22 10:20 pm, Malatya. Weather by CustomWeather, © 2019

Note: Actual official high and low records may vary slightly from our data, if they occured in-between our weather recording intervals... More about our weather records

Advertising

Malatya Weather History for the Previous 24 Hours

Scroll right to see more
 ConditionsComfort  
Time TempWeatherWind HumidityBarometerVisibility
10:20 pm
Fri, Mar 22
50 °FPassing clouds.5 mph32%30.09 "HgN/A
9:50 pm52 °FClear.3 mph30%30.09 "Hg10 mi
9:20 pm50 °FClear.13 mph35%30.09 "Hg10 mi
8:50 pm52 °FPassing clouds.14 mph32%30.07 "HgN/A
8:20 pm54 °FClear.13 mph30%30.07 "Hg10 mi
7:50 pm54 °FClear.14 mph30%30.07 "Hg10 mi
7:20 pm55 °FClear.15 mph28%30.04 "Hg10 mi
6:50 pm55 °FClear.15 mph28%30.04 "Hg10 mi
6:20 pm57 °FSunny.14 mph29%30.04 "Hg10 mi
5:50 pm59 °FSunny.14 mph27%30.04 "Hg10 mi
5:20 pm61 °FSunny.13 mph22%30.04 "Hg10 mi
4:50 pm63 °FPassing clouds.9 mph22%30.04 "HgN/A
4:20 pm63 °FPassing clouds.14 mph20%30.04 "HgN/A
3:50 pm63 °FPassing clouds.12 mph20%30.07 "HgN/A
2:50 pm61 °FPassing clouds.6 mph29%30.07 "HgN/A
2:20 pm61 °FSunny.5 mph25%30.09 "Hg10 mi
1:50 pm59 °FSunny.8 mph31%30.09 "Hg10 mi
1:20 pm59 °FSunny.5 mph27%30.09 "Hg10 mi
12:50 pm57 °FPassing clouds.8 mph29%30.12 "HgN/A
12:20 pm57 °FPassing clouds.8 mph31%30.12 "HgN/A
11:50 am55 °FPassing clouds.8 mph28%30.15 "HgN/A
11:20 am55 °FSunny.10 mph28%30.15 "Hg10 mi
10:50 am55 °FSunny.13 mph31%30.15 "Hg10 mi
10:20 am54 °FSunny.5 mph38%30.15 "Hg10 mi
9:50 am52 °FSunny.2 mph38%30.18 "Hg10 mi
9:20 am48 °FPassing clouds.6 mph46%30.15 "HgN/A
8:50 am46 °FPassing clouds.6 mph46%30.15 "HgN/A
8:20 am45 °FPassing clouds.3 mph49%30.15 "HgN/A
7:50 am41 °FSunny.7 mph66%30.15 "Hg10 mi
7:20 am34 °FSunny.6 mph75%30.12 "Hg10 mi
6:50 am32 °FPassing clouds.3 mph75%30.12 "HgN/A
6:20 am30 °FClear.5 mph80%30.12 "Hg10 mi
5:50 am32 °FPassing clouds.3 mph69%30.12 "HgN/A
5:20 am34 °FPassing clouds.5 mph65%30.12 "HgN/A
4:50 am36 °FClear.6 mph65%30.12 "Hg10 mi
4:20 am36 °FPassing clouds.6 mph65%30.09 "HgN/A
3:50 am37 °FPassing clouds.3 mph65%30.09 "HgN/A
3:20 am39 °FClear.2 mph61%30.09 "Hg10 mi
2:50 am39 °FClear.2 mph61%30.09 "Hg10 mi
2:20 am41 °FPassing clouds.6 mph53%30.09 "HgN/A
1:50 am43 °FClear.2 mph53%30.09 "Hg10 mi
1:20 am39 °FPassing clouds.5 mph61%30.09 "HgN/A
12:50 am43 °FPassing clouds.3 mph49%30.09 "HgN/A
12:20 am45 °FPassing clouds.7 mph49%30.09 "HgN/A
11:50 pm
Thu, Mar 21
54 °FClear.6 mph30%30.09 "Hg10 mi
11:20 pm48 °FClear.3 mph43%30.09 "Hg10 mi
Weather by CustomWeather, © 2019

See weather overview